User: anonymous   Login
Location: Adelaide
(34.9285°S, 138.6007°E)
Time: 04:20:46
(UTC+10:30)
Language:

Envisat - Orbit

View from above orbital plane
View from above orbital plane
View from above satellite
View from above satellite

Ground track
Ground track

The orbit data is extracted from the following two-line orbital elements,

1 27386U 02009A   19341.11913833  .00000013  00000-0  17696-4 0  9991
2 27386  98.1416 353.3048 0001329  90.5560 311.9403 14.37965006930838
Epoch (UTC): 07 December 2019 02:51:33
Eccentricity: 0.0001329
inclination: 98.1416°
perigee height: 764 km
apogee height: 766 km
right ascension of ascending node: 353.3048°
argument of perigee: 90.5560°
revolutions per day: 14.37965006
mean anomaly at epoch: 311.9403°
orbit number at epoch: 93083

The dashed part of the orbit path shows where the satellite is in the earth's shadow,  

DLR